Location: ??????
(41.3164°N, 22.6615°E)
Time: 02:23:56
(UTC+00:00)

STRAND 1 - Pass Details

Date: 27 June 2022
Orbit: 767 x 781 km, 98.4° (Epoch: 08 August)

Event Time Altitude Azimuth Distance (km) Brightness Sun altitude
Rises 18:39:09 0° 0° (N) 3,271 ? -5.8°
Reaches altitude 10° 18:41:51 10° 347° (NNW) 2,337 ? -6.2°
Maximum altitude 18:45:54 24° 295° (WNW) 1,562 ? -6.8°
Drops below altitude 10° 18:49:57 10° 243° (WSW) 2,317 ? -7.4°
Sets 18:52:37 0° 230° (SW) 3,237 ? -7.7°
